Location: Bijele Vode
(45.2833°N, 16.2000°E)
Time: 12:55:11
(UTC+00:00)

O/OREOS (USA 219) - Visible Passes

Search period start: 06 December 2021 00:00
Search period end: 16 December 2021 00:00
Orbit: 621 x 646 km, 72.0° (Epoch: 22 May)

Date Brightness Start Highest point End Pass type
(mag) Time Alt. Az. Time Alt. Az. Time Alt. Az.
10 Dec ? 17:43:48 10° N 17:43:53 10° N 17:43:53 10° N visible
11 Dec ? 18:05:36 10° NNW 18:06:02 12° NNW 18:06:02 12° NNW visible
12 Dec ? 16:49:05 10° N 16:50:50 17° NNE 16:50:50 17° NNE visible
12 Dec ? 18:27:43 10° NNW 18:28:20 14° NW 18:28:20 14° NW visible
13 Dec ? 17:10:33 10° N 17:13:21 29° NNE 17:13:21 29° NNE visible
13 Dec ? 18:50:15 10° NW 18:50:52 13° NW 18:50:52 13° NW visible
14 Dec ? 15:55:01 10° NNE 15:56:46 12° NE 15:58:33 10° ENE visible
14 Dec ? 17:32:24 10° NNW 17:36:14 59° N 17:36:14 59° N visible
15 Dec ? 16:15:46 10° N 16:19:20 21° NE 16:22:13 13° E visible
15 Dec ? 17:54:33 10° NW 17:59:02 51° WSW 17:59:50 45° SW visible
